Dewpoint
52 51 53 52 53 53 52 53 51 50 50 37 43 29 24 23 13 22 32 36 27 16 15 23 24 17 22 25 22 25 23 17 18 21 23 18 21 21 19 17 15 15 15 18 18 17 8 15 7 12 14 18 20 23 22 25 26 21 20 13 21 24 8 2 6 10 13 14 12 13 14 13 9 9 11 8 4 6 7 5 4 4 1 4 5 3 4
53 52 53 52 53 52 52 52 51 49 50 42 39 28 21 26 15 20 29 34 31 19 8 11 14 20 23 22 23 27 26 25 24 24 25 18 13 18 19 17 18 15 22 21 14 17 2 11 10 10 12 10 26 24 25 26 23 20 17 3 16 2 7 2 3 3 4 1 6 7 9 8 9 6 8 10 9 8 9 6 5 4 7 7 5 1 3
52 52 52 52 52 52 52 53 51 50 49 44 39 20 28 24 25 30 28 27 25 12 21 18 19 22 19 17 17 18 15 25 25 24 18 23 16 16 16 16 19 19 22 19 22 22 9 6 12 7 9 10 26 24 25 24 24 27 28 30 24 5 7 3 -2 -1 -1 -1 -1 1 4 7 5 2 8 7 5 6 6 3 2 2 4 7 3 4 4
51 52 51 51 52 52 52 52 50 48 46 45 41 33 19 23 4 14 14 21 26 26 25 23 21 17 12 9 11 18 12 20 25 23 24 22 23 20 21 22 17 19 16 16 20 20 19 9 9 9 10 13 18 25 23 25 26 30 29 25 17 3 11 8 5 3 4 6 7 4 10 5 7 7 7 8 5 8 7 6 5 5 6 4 5 7 5
51 51 51 52 52 52 53 53 49 50 47 47 33 26 22 25 17 15 2 22 18 20 23 24 22 13 20 7 8 5 19 16 21 27 10 25 25 25 20 21 13 14 12 11 20 21 16 17 10 9 8 11 13 22 24 26 26 29 26 25 10 1 4 10 11 10 10 7 6 6 9 6 4 5 7 8 7 5 5 4 3 6 6 3 5 4 6
51 51 51 52 52 52 52 51 49 48 50 45 32 21 22 20 16 21 20 16 2 19 9 23 20 21 21 12 20 13 19 20 10 22 20 24 22 18 18 23 21 19 14 16 6 16 16 14 6 8 7 11 15 14 24 23 29 26 21 18 6 3 4 5 2 3 6 6 6 7 6 5 5 6 7 7 6 2 -0 2 7 7 4 4 4 6 8
51 52 52 51 52 51 51 52 51 47 48 40 30 21 16 25 22 23 24 11 12 19 15 25 23 23 22 23 18 15 18 14 21 21 22 21 18 16 5 14 23 22 22 16 10 17 7 10 7 9 8 10 13 10 12 22 23 20 16 16 6 4 3 3 2 7 7 7 6 5 5 5 6 6 3 1 1 3 4 4 6 7 7 7 8 6 3
51 51 51 52 52 52 52 52 51 50 46 38 32 24 19 14 13 9 21 21 17 18 19 24 21 17 21 13 13 19 21 15 21 25 17 10 18 23 18 17 21 23 24 21 12 13 13 11 9 11 10 13 11 10 12 12 16 18 16 14 13 6 7 10 3 4 7 7 7 6 6 5 2 1 2 1 2 5 7 7 9 9 5 4 3 3 4
51 51 51 51 51 51 52 50 49 47 46 27 29 21 25 21 24 20 13 16 11 19 17 20 20 13 16 14 13 23 22 20 23 18 23 15 12 22 11 19 24 23 24 23 20 22 20 19 19 18 15 11 17 10 12 18 16 14 12 9 5 4 7 3 -1 5 6 5 1 2 3 2 3 2 2 2 2 2 6 1 6 4 4 3 4 5 5
50 51 51 51 51 51 48 49 48 48 44 27 26 19 23 27 26 25 20 12 14 11 18 21 19 8 12 20 20 20 22 23 23 16 23 25 26 23 21 22 22 20 17 16 20 23 24 24 24 23 23 21 22 21 19 21 17 13 13 10 5 3 2 6 1 6 5 4 4 2 1 4 1 2 3 5 3 2 -1 -1 -0 0 0 4 4 4 6
49 49 50 49 51 50 51 51 49 49 40 25 23 18 26 24 24 23 23 17 9 16 17 14 17 14 24 25 22 23 24 24 25 0 -0 26 28 27 23 23 19 16 15 20 27 27 26 25 25 24 24 23 23 22 23 22 20 17 15 9 11 5 5 6 3 0 4 5 3 2 2 0 1 5 7 2 0 -1 -1 -1 -0 1 4 4 6 7 9
49 49 49 49 49 49 49 48 50 49 44 37 26 23 27 29 28 25 24 19 8 13 18 10 17 24 22 22 24 22 19 23 24 23 11 21 26 26 26 24 14 13 21 24 24 25 25 26 26 25 25 24 24 24 23 22 22 25 15 11 7 9 9 5 -3 1 3 3 3 4 -2 -1 4 7 8 1 1 0 -1 0 5 6 6 7 9 10 10
48 48 48 48 48 49 50 48 46 45 45 36 31 28 26 32 28 23 20 17 8 14 11 14 15 20 23 23 22 23 24 24 25 26 25 23 23 27 27 25 21 20 27 27 26 23 17 13 16 21 22 23 23 21 23 23 22 20 18 14 8 3 6 3 3 0 1 2 -2 -1 1 4 4 7 8 5 3 2 3 6 7 6 7 9 10 11 11
48 48 48 48 48 47 48 48 48 45 40 37 36 32 30 34 23 22 24 21 16 14 11 16 16 20 21 23 20 23 22 20 20 21 20 26 24 25 28 30 28 29 27 26 23 15 13 12 4 10 8 10 9 10 14 19 22 19 18 18 13 12 2 -2 2 -1 -2 1 3 4 5 4 5 1 1 1 1 2 5 5 6 5 8 10 10 10 10
47 47 47 47 47 47 46 46 46 46 45 43 38 36 38 36 32 26 24 23 19 14 16 7 14 19 22 21 22 16 15 17 16 17 22 26 28 28 29 29 28 27 26 21 16 16 10 7 4 4 5 8 2 2 14 9 16 20 19 17 13 11 5 4 4 3 -1 -0 4 3 3 2 3 1 3 4 4 7 8 7 6 5 8 9 8 8 7
47 46 46 46 46 47 47 46 46 44 45 41 36 35 35 35 32 25 24 23 23 16 22 29 28 22 19 20 22 12 8 15 15 17 15 20 24 26 27 26 25 27 23 20 16 8 5 7 3 3 2 1 4 3 2 8 5 14 15 15 13 11 7 4 7 4 3 2 -1 1 2 4 2 1 5 7 8 9 9 6 2 7 8 7 7 6 6
47 46 46 46 46 46 46 47 48 48 49 45 33 32 31 34 35 28 24 27 28 19 26 27 28 29 19 18 17 14 20 14 15 9 10 13 21 26 26 26 26 27 24 16 16 11 12 7 3 2 3 8 2 1 4 4 4 5 7 9 8 5 3 2 3 1 2 2 0 -2 -5 1 2 4 7 7 9 8 7 -4 -3 8 7 7 6 6 6
47 47 47 46 46 46 45 45 44 44 42 41 32 30 29 32 33 31 27 27 25 20 25 29 31 28 23 19 13 19 22 19 21 20 14 16 22 21 24 25 23 25 25 12 12 9 5 4 6 2 2 7 5 5 2 4 3 5 6 8 5 2 2 1 4 1 6 8 3 3 4 8 4 5 8 8 8 5 0 -3 5 8 7 7 6 6 6
46 46 47 47 47 46 45 45 46 45 44 41 33 30 29 31 33 30 28 27 25 19 24 28 29 30 31 31 30 27 24 18 19 11 13 18 16 21 25 25 24 11 20 10 13 7 5 3 8 1 2 7 9 3 6 4 3 7 8 8 5 1 2 3 -0 1 1 2 5 5 8 5 6 7 6 7 6 1 1 6 8 7 7 6 6 6 7
46 46 46 46 47 47 47 46 42 41 43 44 33 25 27 31 32 32 27 25 23 26 26 29 30 29 31 32 28 25 21 18 21 15 13 7 21 23 20 15 21 19 16 15 8 9 6 5 6 7 4 2 8 8 4 7 10 8 8 6 4 4 1 1 3 5 6 6 5 3 0 8 7 5 6 7 5 5 7 8 8 8 7 6 7 7 7
45 45 45 45 46 46 46 47 46 42 40 41 35 25 25 29 32 31 29 26 25 18 19 29 29 30 31 30 30 30 24 15 19 10 16 14 18 18 10 6 13 14 10 7 7 7 6 7 6 6 8 7 10 8 5 3 4 9 10 4 6 7 1 0 1 4 4 4 3 3 8 7 8 4 4 5 7 8 9 9 7 8 8 7 7 8 9
45 45 45 45 45 45 45 45 45 45 45 44 39 25 23 28 31 33 32 30 27 24 24 29 30 31 32 33 33 33 32 31 31 29 20 15 23 16 14 21 21 17 17 14 12 9 13 11 7 7 6 8 11 6 8 4 3 7 9 10 7 11 3 5 4 4 5 5 7 8 8 8 7 6 7 8 9 10 10 10 8 8 8 9 8 9 9
44 44 45 45 45 45 44 44 44 43 43 41 35 25 23 26 29 30 26 26 30 31 32 32 32 33 34 34 35 34 33 34 34 33 31 24 15 21 21 20 18 23 24 20 11 13 13 9 8 8 6 8 7 6 4 2 2 3 7 9 13 10 9 7 3 8 8 7 7 11 8 7 6 7 9 8 9 11 11 10 9 9 9 10 10 10 9
44 44 44 44 44 44 44 43 43 43 42 41 34 25 26 27 28 26 24 27 26 24 23 29 24 22 24 26 30 31 32 32 33 33 33 31 18 15 22 26 24 25 25 24 22 14 12 11 11 7 6 11 5 4 5 5 1 7 5 7 4 9 4 3 4 6 6 5 8 7 6 6 7 7 8 10 11 11 11 10 10 10 10 11 11 10 9
43 43 43 43 43 42 42 42 43 43 42 40 36 35 34 32 32 30 24 18 16 21 14 13 20 24 30 31 32 32 33 34 33 33 33 32 31 19 17 27 27 22 21 24 23 20 13 10 12 10 8 15 9 10 14 6 9 10 8 10 8 10 7 4 6 6 5 6 7 8 7 7 8 9 9 10 11 12 11 12 11 11 12 12 11 9 8
44 44 43 43 43 42 42 41 40 41 41 40 38 32 32 30 32 32 29 27 24 21 17 13 18 29 29 30 29 31 33 33 33 34 33 33 33 30 29 28 28 26 26 25 19 17 15 13 10 9 8 11 14 10 8 9 11 11 9 11 9 7 11 8 7 6 7 8 8 7 7 8 9 9 10 12 12 12 12 12 11 12 12 12 9 8 7
44 44 45 45 44 43 42 41 40 39 37 36 30 29 30 30 34 34 26 25 22 11 19 12 14 24 30 27 31 34 34 33 32 33 33 33 33 33 30 27 28 26 23 20 20 14 13 11 12 12 11 12 7 8 9 11 13 8 7 12 10 8 10 8 9 9 8 7 6 7 7 7 8 10 11 12 13 13 13 12 11 12 13 9 7 6 6
43 43 43 45 46 46 45 44 42 39 37 35 31 27 27 27 31 33 34 32 22 22 17 15 16 20 27 30 32 30 30 31 31 32 32 32 32 32 30 28 27 21 18 16 17 16 12 15 14 12 10 11 13 11 9 10 8 7 6 10 9 6 6 10 8 7 7 7 7 9 9 9 10 11 12 13 14 14 12 12 12 13 11 8 7 6 5
44 43 43 43 44 46 46 47 46 44 42 40 33 30 27 29 28 33 36 33 28 25 25 24 23 19 12 22 29 29 30 29 29 29 29 31 31 30 29 28 27 21 17 16 14 12 11 14 15 11 13 18 11 9 7 8 7 7 9 12 11 9 11 9 7 8 8 8 9 10 10 10 11 12 13 14 14 14 14 13 12 14 9 7 6 5 4
43 44 44 43 42 42 41 44 46 44 42 34 31 27 24 18 27 32 36 35 29 28 24 18 14 10 25 29 28 28 29 30 29 29 29 27 27 27 27 26 24 26 19 17 14 15 17 16 18 21 20 20 13 9 8 6 4 9 15 14 11 11 10 14 15 9 7 10 11 11 12 12 13 14 15 15 15 15 15 12 11 11 8 7 5 4 3
43 43 44 43 42 40 39 41 44 44 41 31 26 18 19 12 12 32 37 34 30 27 23 23 15 15 18 25 26 25 28 28 26 27 27 26 26 26 24 24 23 25 19 17 15 17 18 16 15 18 21 23 15 7 8 6 4 2 9 12 12 11 10 11 14 14 13 12 13 13 13 13 14 15 15 15 15 15 13 10 9 11 8 6 4 3 3
44 43 43 44 43 42 40 38 36 36 23 19 17 16 15 13 16 32 38 37 31 27 25 19 10 12 14 22 24 24 27 28 27 27 23 26 17 23 21 23 20 25 28 16 18 14 14 20 15 15 13 23 19 6 5 6 5 7 9 9 11 11 13 13 12 12 13 13 13 13 13 13 14 14 14 15 14 12 10 7 8 7 7 5 3 3 3
46 45 44 44 44 43 42 40 37 30 21 27 36 39 39 42 41 40 40 31 25 20 20 19 7 10 14 9 16 21 27 24 21 20 17 21 16 20 18 23 22 22 29 21 13 13 18 18 17 12 17 13 12 8 3 3 6 9 10 12 11 12 13 14 12 12 12 13 13 12 13 13 14 16 15 14 12 12 8 6 7 5 4 3 2 2 1
46 46 46 45 44 44 44 42 42 40 37 25 19 18 25 40 38 40 33 27 21 19 21 16 8 9 10 14 14 18 21 16 14 19 13 22 18 18 16 18 20 16 18 16 18 19 18 15 9 10 15 9 12 6 3 9 12 10 10 10 11 13 13 12 11 11 13 14 14 14 15 15 16 16 14 12 12 8 7 5 5 4 3 2 1 1 0
46 45 44 44 43 46 43 42 30 31 26 29 26 27 30 40 40 40 31 18 14 14 16 15 17 12 13 14 11 18 22 18 12 15 12 16 19 14 17 13 16 14 12 22 18 17 12 12 16 9 8 8 7 6 6 11 9 10 10 10 11 12 11 11 11 13 14 15 15 15 16 16 16 14 12 12 11 6 5 4 4 3 1 1 0 -0 -1
45 45 44 43 44 42 33 32 29 26 23 15 15 27 39 41 38 30 28 26 22 17 15 10 15 10 8 5 7 10 22 16 17 16 15 14 17 18 17 12 13 16 18 15 11 11 8 16 12 10 6 7 4 5 9 11 10 11 11 11 12 13 12 12 13 14 15 15 15 15 15 16 14 12 12 12 8 5 4 3 3 2 2 1 -1 -1 -1
45 43 41 40 34 31 23 18 30 22 14 18 27 38 38 38 31 30 27 28 26 25 20 14 16 9 12 9 12 18 18 10 17 13 12 13 12 12 12 12 12 19 11 8 5 6 9 20 7 6 8 4 5 10 13 12 12 12 12 13 14 14 13 14 15 15 15 14 14 15 15 15 13 12 11 9 6 4 3 3 2 1 1 -0 -1 -2 -3
42 41 31 26 26 20 15 17 19 24 37 34 37 25 27 30 13 19 22 20 15 26 18 18 11 10 16 15 10 20 15 9 16 11 11 10 15 9 12 13 16 18 5 4 6 14 8 7 10 5 4 11 13 15 13 11 12 14 13 13 14 14 14 15 16 15 14 14 14 14 14 13 12 9 7 7 5 4 3 3 2 1 1 -0 -2 -3 -6
38 30 28 25 23 13 15 17 29 37 32 33 32 18 14 16 17 10 7 12 14 15 13 17 11 17 13 8 15 24 15 10 10 7 8 13 10 9 10 6 9 10 3 3 7 11 4 3 2 1 4 9 7 8 10 10 11 12 14 14 15 15 15 16 16 16 15 15 16 15 14 14 12 8 7 6 5 4 3 2 1 -0 -0 -2 -4 -5 -7
26 17 18 20 16 15 30 33 37 28 31 16 19 17 7 12 18 4 11 10 10 11 13 12 12 16 15 12 10 12 24 14 9 9 11 13 23 7 9 9 9 4 1 0 6 6 4 2 0 4 6 5 9 9 10 10 11 12 13 13 15 16 16 16 16 17 17 17 16 16 15 13 9 8 7 6 4 3 2 2 1 -1 -1 -4 -5 -6 -8
27 21 17 13 16 23 29 31 26 24 17 11 9 7 7 7 10 8 12 8 8 8 12 10 11 11 13 14 14 10 20 19 13 10 8 9 14 14 5 3 8 2 0 0 6 4 2 2 2 4 6 10 9 10 10 12 13 13 14 13 16 16 16 16 16 17 15 15 14 15 14 9 6 5 6 5 3 2 2 1 -1 -2 -4 -6 -8 -8 -7
22 19 16 27 29 30 24 20 20 12 9 13 5 3 5 5 10 11 9 4 4 10 11 11 7 9 11 15 13 13 10 13 13 12 10 8 19 6 3 5 4 -0 -2 3 4 2 1 1 -1 -1 7 9 9 11 12 13 14 14 14 14 16 16 16 15 16 16 14 14 13 13 11 4 3 4 3 1 1 -1 -2 -3 -4 -6 -6 -7 -7 -7 -7
39 35 33 24 21 19 21 14 14 11 5 6 1 -1 3 4 5 4 5 10 11 9 10 11 10 19 15 15 11 11 11 23 16 11 9 8 20 11 2 2 0 -0 1 3 2 1 1 -0 -2 7 10 9 10 12 13 14 14 15 15 15 16 16 15 14 14 14 14 13 10 8 6 2 1 2 0 -3 -5 -6 -7 -5 -6 -7 -6 -7 -8 -8 -8
29 27 18 19 14 10 13 4 10 6 3 5 2 -2 1 2 7 8 6 11 12 11 12 8 10 14 12 12 9 12 14 17 24 8 8 8 4 3 1 2 1 3 5 2 2 1 3 -1 7 10 10 11 12 13 14 15 15 15 15 16 15 14 14 14 12 12 12 12 8 6 3 1 1 -1 -4 -5 -5 -5 -7 -9 -7 -5 -7 -9 -9 -9 -9
15 17 16 9 7 10 7 2 9 4 1 2 15 6 6 1 10 8 9 11 11 9 12 11 12 11 12 12 9 13 17 10 17 7 4 4 2 4 1 2 3 -0 0 -1 -2 -1 -1 3 11 10 11 13 14 14 15 16 16 15 15 14 15 15 14 14 14 14 13 10 9 5 3 3 1 -0 -2 -3 -5 -6 -8 -9 -7 -7 -8 -9 -10 -10 -10
20 10 12 6 5 8 7 2 5 2 7 12 10 14 11 14 10 10 13 12 12 12 13 12 9 10 11 10 7 7 10 6 5 4 5 3 1 1 3 6 1 -0 -2 -2 -2 -1 3 5 11 10 12 14 14 15 16 16 17 15 12 13 16 16 16 15 14 13 11 10 7 4 3 2 1 -1 -1 -2 -4 -5 -8 -8 -8 -8 -9 -11 -11 -10 -11
14 14 15 10 7 6 11 4 5 9 8 12 12 11 13 15 14 15 13 12 13 13 12 10 12 11 10 10 7 6 6 5 3 5 4 2 2 3 6 1 -1 -3 -2 -3 -3 -2 2 9 9 11 13 14 14 14 15 16 16 15 15 15 16 16 16 15 14 13 11 7 3 3 2 1 0 -1 -3 -5 -5 -6 -7 -9 -10 -10 -11 -11 -11 -11 -13
9 11 13 6 4 8 6 7 11 12 16 13 12 10 13 15 12 10 11 11 15 16 12 11 12 12 10 10 7 5 6 6 1 2 4 2 4 0 -2 -1 -2 -3 -2 -1 4 5 8 14 13 14 15 15 15 15 15 15 15 14 14 15 16 16 15 14 13 12 8 5 3 2 0 -1 -2 -3 -5 -5 -7 -8 -9 -10 -11 -13 -13 -13 -14 -14 -14
17 10 8 5 8 12 11 13 13 14 14 12 12 13 14 12 12 12 11 11 15 13 13 10 11 8 7 8 4 4 3 5 1 0 3 2 -0 -1 -2 -4 -3 -2 4 6 10 11 11 12 14 13 12 12 12 14 16 16 16 15 14 15 16 15 15 13 12 11 6 3 1 1 -1 -3 -4 -5 -6 -7 -10 -8 -8 -12 -14 -14 -14 -14 -14 -14 -15
13 12 17 15 10 10 12 12 11 11 12 10 12 11 10 11 11 10 10 14 11 10 13 16 16 10 7 5 3 1 2 3 1 4 2 1 1 -1 -1 -2 0 3 5 6 8 12 14 13 9 9 10 12 12 14 15 15 15 14 13 15 15 15 13 12 9 7 4 2 1 -1 -4 -5 -5 -6 -6 -7 -7 -10 -13 -15 -14 -14 -13 -14 -15 -15 -15
14 13 10 11 10 9 15 7 12 10 9 13 12 12 14 12 13 11 13 9 10 10 10 9 8 6 7 3 2 3 2 3 2 2 2 -0 1 1 1 4 9 9 9 12 14 16 17 13 13 12 10 11 14 14 15 14 12 11 11 13 13 12 12 9 6 6 2 0 -2 2 -6 -7 -5 -6 -5 -9 -12 -14 -16 -14 -12 -14 -14 -13 -15 -16 -17
11 11 8 12 12 12 12 12 14 13 15 12 11 14 17 10 13 11 14 15 11 11 9 9 7 6 4 4 4 5 4 3 2 2 2 5 3 3 3 7 13 13 14 14 15 14 12 12 14 14 14 15 15 14 12 8 7 6 6 8 10 9 6 5 3 1 -1 -2 -7 -7 -8 -7 -8 -9 -8 -11 -14 -15 -14 -14 -11 -13 -12 -12 -15 -16 -17